CDT,Max TemperatureF,Mean TemperatureF,Min TemperatureF,Max Dew PointF,MeanDew PointF,Min DewpointF,Max Humidity, Mean Humidity, Min Humidity, Max Sea Level PressureIn, Mean Sea Level PressureIn, Min Sea Level PressureIn, Max VisibilityMiles, Mean VisibilityMiles, Min VisibilityMiles, Max Wind SpeedMPH, Mean Wind SpeedMPH, Max Gust SpeedMPH,PrecipitationIn, CloudCover, Events, WindDirDegrees
2013-9-1,83,77,70,73,72,70,100,87,74,29.88,29.82,29.76,10,8,4,16,6,22,T,1,,225
2013-9-2,88,75,62,72,68,62,100,73,45,29.94,29.87,29.83,10,4,0,13,4,17,0.00,2,Fog,350
2013-9-3,85,72,58,63,59,51,97,65,32,30.06,30.01,29.94,10,10,9,12,4,20,0.00,0,,326
2013-9-4,85,70,55,64,59,54,100,72,43,30.17,30.10,30.06,10,6,0,8,2,13,0.00,0,Fog,58
2013-9-5,85,70,54,66,58,54,100,74,47,30.20,30.16,30.13,10,4,0,8,1,12,0.00,1,Fog,93
2013-9-6,87,73,58,68,63,58,100,72,43,30.18,30.13,30.05,10,5,0,9,2,13,0.00,0,Fog,136
2013-9-7,89,74,58,69,63,57,100,74,47,30.08,30.04,29.95,10,5,0,10,3,14,0.00,0,Fog,227
2013-9-8,88,77,65,74,70,64,94,75,55,29.99,29.95,29.91,10,8,4,10,1,15,0.00,1,,90
2013-9-9,94,83,71,74,72,70,100,76,52,30.00,29.95,29.92,10,6,0,9,3,13,0.00,3,Fog,181
2013-9-10,94,83,71,75,72,69,100,73,46,30.12,30.08,30.01,10,6,2,13,4,16,0.00,0,,147
2013-9-11,94,81,68,73,69,66,100,72,44,30.15,30.10,30.05,10,8,4,13,2,24,0.00,0,,171
2013-9-12,89,77,65,72,67,61,100,76,52,30.06,30.03,29.95,10,5,0,17,4,21,0.00,1,Fog,356
2013-9-13,79,66,52,58,53,50,86,62,37,30.09,30.05,30.02,10,10,10,17,6,24,0.00,1,,17
2013-9-14,77,62,47,51,48,44,100,67,33,30.16,30.09,30.05,10,10,10,12,3,15,0.00,0,,79
2013-9-15,68,66,63,57,56,55,78,73,63,30.11,30.07,30.05,10,10,10,12,3,,0.00,0,,196
2013-9-16,73,67,60,65,62,57,93,81,68,30.23,30.17,30.10,10,9,4,13,6,17,T,5,Rain,18
2013-9-17,84,74,63,65,62,59,93,72,51,30.21,30.15,30.08,10,10,8,9,4,14,0.00,1,,74
2013-9-18,89,79,68,70,67,64,84,67,50,30.11,30.04,29.98,10,9,7,12,5,16,0.00,1,,183
2013-9-19,89,81,72,73,70,68,93,75,56,30.06,30.00,29.92,10,9,7,13,7,20,0.00,1,,180
2013-9-20,77,72,66,72,69,65,100,85,69,29.95,29.91,29.85,10,7,1,15,6,22,0.44,6,Rain-Thunderstorm,222
2013-9-21,75,63,51,59,56,54,84,81,78,29.88,29.87,29.86,10,10,10,17,7,23,0.00,3,,355
2013-9-22,77,62,46,,,,,,,,,,,,,12,3,15,0.00,,,
2013-9-23,80,63,45,55,52,49,93,64,35,30.03,29.96,29.92,10,10,10,13,4,18,0.00,0,,87
2013-9-24,76,65,54,67,62,53,93,84,74,29.94,29.87,29.82,10,10,10,15,4,18,0.00,5,Thunderstorm,131
2013-9-25,82,72,61,67,63,59,100,77,54,29.88,29.83,29.80,10,8,0,10,2,15,0.00,5,Fog,95
2013-9-26,84,70,56,66,60,57,100,74,47,30.01,29.93,29.87,10,4,0,10,1,17,0.00,1,Fog,102
2013-9-27,83,70,56,63,58,55,100,70,40,30.11,30.06,30.01,10,6,0,9,3,13,0.00,2,Fog,107
2013-9-28,84,73,62,62,59,57,93,68,43,30.10,30.04,29.99,10,10,10,20,9,28,0.00,2,,167
2013-9-29,72,68,64,65,63,59,100,83,66,30.04,30.01,29.98,10,6,2,10,5,15,T,8,Rain,155
2013-9-30,71,68,64,66,64,63,100,92,84,30.00,29.97,29.94,10,7,0,9,4,12,0.00,8,Fog,138